| time (UTC) | temp F | wind direction | speed knots | gust knots | rain 1hr in | rain 24hr in | rain mn in | humidity % | barometer mb |
| 20260504070312 | 45 | 20 | 0.0 | 1.7 | 0.00 | 0.04 | 0.00 | 94 | 1006.9 |
| 20260504045821 | 45 | 46 | 0.0 | 1.7 | 0.00 | 0.04 | 0.00 | 93 | 1007.8 |
| 20260504044753 | 45 | 89 | 0.0 | 3.5 | 0.00 | 0.04 | 0.00 | 93 | 1007.9 |
| 20260504043813 | 46 | 46 | 0.9 | 3.5 | 0.00 | 0.04 | 0.00 | 93 | 1008.0 |
| 20260504041616 | 46 | 72 | 0.9 | 1.7 | 0.00 | 0.04 | 0.00 | 93 | 1007.7 |
| 20260504035448 | 46 | 124 | 0.0 | 2.6 | 0.00 | 0.04 | 0.05 | 92 | 1008.0 |
| 20260504034433 | 46 | 148 | 0.0 | 2.6 | 0.00 | 0.04 | 0.05 | 92 | 1007.9 |
| 20260504033426 | 46 | 1 | 0.0 | 1.7 | 0.00 | 0.04 | 0.05 | 91 | 1008.1 |
| 20260504032420 | 46 | 336 | 0.0 | 1.7 | 0.00 | 0.04 | 0.05 | 91 | 1008.0 |
| 20260504031428 | 46 | 89 | 0.9 | 1.7 | 0.00 | 0.04 | 0.05 | 90 | 1007.8 |
| 20260504030357 | 46 | 206 | 0.0 | 3.5 | 0.00 | 0.04 | 0.04 | 89 | 1008.3 |
| 20260504025333 | 46 | 295 | 0.9 | 3.5 | 0.00 | 0.04 | 0.04 | 89 | 1008.6 |
| 20260504024338 | 46 | 314 | 0.9 | 5.2 | 0.05 | 0.04 | 0.04 | 88 | 1008.3 |
| 20260504023356 | 46 | 1 | 0.9 | 5.2 | 0.04 | 0.03 | 0.03 | 87 | 1008.7 |
| 20260504022359 | 47 | 312 | 1.7 | 5.2 | 0.04 | 0.02 | 0.03 | 85 | 1009.1 |
| 20260504021346 | 47 | 334 | 1.7 | 4.3 | 0.00 | 0.02 | 0.02 | 83 | 1008.8 |
| 20260504020344 | 48 | 350 | 1.7 | 4.3 | 0.00 | 0.01 | 0.01 | 81 | 1008.8 |
| 20260504014158 | 49 | 302 | 0.9 | 5.2 | 0.00 | 0.00 | 0.00 | 74 | 1008.6 |
| 20260504011946 | 49 | 349 | 0.0 | 3.5 | 0.00 | 0.00 | 0.00 | 71 | 1008.4 |
| 20260504010958 | 49 | 295 | 0.0 | 0.0 | 0.00 | 0.00 | 0.00 | 70 | 1008.3 |
| 20260504010019 | 50 | 286 | 0.0 | 1.7 | 0.00 | 0.00 | 0.00 | 69 | 1008.3 |
| 20260504005012 | 50 | 344 | 0.9 | 2.6 | 0.00 | 0.00 | 0.00 | 68 | 1008.1 |
| 20260504004031 | 50 | 334 | 1.7 | 4.3 | 0.00 | 0.00 | 0.00 | 67 | 1008.1 |
| 20260504003025 | 50 | 303 | 0.9 | 5.2 | 0.00 | 0.00 | 0.00 | 66 | 1008.1 |
| 20260504002020 | 50 | 329 | 2.6 | 12.2 | 0.00 | 0.00 | 0.00 | 65 | 1007.9 |
| 20260504000954 | 51 | 277 | 5.2 | 12.2 | 0.00 | 0.00 | 0.00 | 63 | 1008.0 |
| 20260504000013 | 52 | 352 | 3.5 | 10.4 | 0.00 | 0.00 | 0.00 | 55 | 1008.5 |
| 20260503234949 | 52 | 290 | 2.6 | 8.7 | 0.00 | 0.00 | 0.00 | 55 | 1008.1 |
| 20260503233940 | 52 | 303 | 3.5 | 7.8 | 0.00 | 0.00 | 0.00 | 55 | 1007.9 |
| 20260503231832 | 53 | 258 | 4.3 | 10.4 | 0.00 | 0.00 | 0.00 | 53 | 1007.8 |
| 20260503225718 | 53 | 296 | 5.2 | 12.2 | 0.00 | 0.00 | 0.00 | 51 | 1007.9 |
| 20260503224722 | 54 | 260 | 3.5 | 8.7 | 0.00 | 0.00 | 0.00 | 49 | 1007.8 |
| 20260503223715 | 54 | 269 | 2.6 | 7.8 | 0.00 | 0.00 | 0.00 | 48 | 1007.8 |
| 20260503221606 | 54 | 246 | 3.5 | 9.6 | 0.00 | 0.00 | 0.00 | 47 | 1007.7 |
| 20260503220622 | 54 | 308 | 4.3 | 11.3 | 0.00 | 0.00 | 0.00 | 45 | 1007.6 |
| 20260503215559 | 55 | 274 | 5.2 | 12.2 | 0.00 | 0.00 | 0.00 | 43 | 1007.6 |
| 20260503213501 | 55 | 304 | 7.8 | 15.6 | 0.00 | 0.00 | 0.00 | 42 | 1007.6 |
| 20260503211400 | 55 | 279 | 7.0 | 17.4 | 0.00 | 0.00 | 0.00 | 41 | 1007.6 |
| 20260503210407 | 55 | 318 | 6.1 | 15.6 | 0.00 | 0.00 | 0.00 | 42 | 1007.7 |
| 20260503205347 | 55 | 257 | 7.0 | 16.5 | 0.00 | 0.00 | 0.00 | 41 | 1007.6 |
| 20260503204320 | 54 | 285 | 6.1 | 16.5 | 0.00 | 0.00 | 0.00 | 40 | 1007.5 |
| 20260503203340 | 54 | 299 | 6.1 | 14.8 | 0.00 | 0.00 | 0.00 | 40 | 1007.6 |
| 20260503202326 | 54 | 290 | 5.2 | 14.8 | 0.00 | 0.00 | 0.00 | 38 | 1007.6 |
| 20260503201311 | 55 | 327 | 6.1 | 14.8 | 0.00 | 0.00 | 0.00 | 37 | 1007.6 |
| 20260503200302 | 55 | 304 | 6.1 | 13.9 | 0.00 | 0.00 | 0.00 | 37 | 1007.7 |
| 20260503195254 | 56 | 274 | 6.1 | 13.0 | 0.00 | 0.00 | 0.00 | 36 | 1007.8 |
| 20260503194313 | 56 | 276 | 5.2 | 18.2 | 0.00 | 0.00 | 0.00 | 36 | 1007.8 |
| 20260503193337 | 56 | 255 | 7.0 | 18.2 | 0.00 | 0.00 | 0.00 | 37 | 1008.0 |
| 20260503192348 | 55 | 236 | 7.0 | 17.4 | 0.00 | 0.00 | 0.00 | 34 | 1008.1 |
| 20260503190201 | 55 | 312 | 4.3 | 13.9 | 0.00 | 0.00 | 0.00 | 35 | 1008.3 |
| 20260503185201 | 55 | 301 | 5.2 | 13.9 | 0.00 | 0.00 | 0.00 | 36 | 1008.5 |
| 20260503184128 | 55 | 342 | 5.2 | 20.0 | 0.00 | 0.00 | 0.00 | 36 | 1008.7 |
| 20260503183150 | 54 | 290 | 7.0 | 20.0 | 0.00 | 0.00 | 0.00 | 40 | 1008.8 |
| 20260503182130 | 53 | 234 | 5.2 | 15.6 | 0.00 | 0.00 | 0.00 | 40 | 1008.9 |
| 20260503181113 | 53 | 285 | 5.2 | 15.6 | 0.00 | 0.00 | 0.00 | 38 | 1009.1 |
| 20260503180050 | 54 | 276 | 4.3 | 17.4 | 0.00 | 0.00 | 0.00 | 41 | 1009.1 |
| 20260503173900 | 53 | 290 | 5.2 | 12.2 | 0.00 | 0.00 | 0.00 | 40 | 1009.4 |
| 20260503171720 | 52 | 277 | 6.1 | 15.6 | 0.00 | 0.00 | 0.00 | 43 | 1009.6 |
| 20260503170652 | 52 | 290 | 6.1 | 15.6 | 0.00 | 0.00 | 0.00 | 40 | 1009.6 |
| 20260503130839 | 44 | 284 | 5.2 | 11.3 | 0.00 | 0.00 | 0.00 | 61 | 1011.4 |
| 20260503110630 | 36 | 229 | 0.9 | 4.3 | 0.00 | 0.00 | 0.00 | 88 | 1011.1 |
| 20260503090326 | 36 | 296 | 0.0 | 0.9 | 0.00 | 0.00 | 0.00 | 90 | 1010.8 |
| 20260503081354 | 36 | 223 | 0.0 | 0.0 | 0.00 | 0.00 | 0.00 | 90 | 1011.0 |
| 20260503080335 | 36 | 314 | 0.0 | 0.0 | 0.00 | 0.00 | 0.00 | 90 | 1011.1 |
| 20260503072453 | 36 | 331 | 0.0 | 1.7 | 0.00 | 0.00 | 0.00 | 89 | 1011.0 |